| time (UTC) | temp C | wind direction | speed KPH | gust KPH | rain 1hr cm | rain 24hr cm | rain mn cm | humidity % | barometer mb |
| 20260505111508 | 10 | 214 | 12.9 | 24.1 | 0.00 | 0.00 | 0.00 | 96 | 1012.0 |
| 20260505101503 | 10 | 245 | 16.1 | 25.7 | 0.00 | 0.00 | 0.00 | 95 | 1011.6 |
| 20260505100100 | 10 | 199 | 14.5 | 27.4 | 0.00 | 0.00 | 0.00 | 95 | 1011.4 |
| 20260505094606 | 10 | 204 | 14.5 | 25.7 | 0.00 | 0.00 | 0.00 | 95 | 1011.3 |
| 20260505093057 | 10 | 207 | 14.5 | 24.1 | 0.00 | 0.00 | 0.00 | 95 | 1011.2 |
| 20260505091559 | 10 | 215 | 16.1 | 22.5 | 0.00 | 0.00 | 0.00 | 94 | 1011.1 |
| 20260505090059 | 10 | 194 | 14.5 | 24.1 | 0.00 | 0.00 | 0.00 | 94 | 1011.0 |
| 20260505084552 | 10 | 197 | 16.1 | 25.7 | 0.00 | 0.00 | 0.00 | 93 | 1010.9 |
| 20260505083052 | 11 | 189 | 16.1 | 24.1 | 0.00 | 0.00 | 0.00 | 93 | 1010.9 |
| 20260505081558 | 11 | 228 | 17.7 | 25.7 | 0.00 | 0.00 | 0.00 | 93 | 1011.0 |
| 20260505080047 | 11 | 211 | 14.5 | 22.5 | 0.00 | 0.00 | 0.00 | 92 | 1010.8 |
| 20260505074602 | 11 | 201 | 12.9 | 20.9 | 0.00 | 0.00 | 0.00 | 92 | 1010.7 |
| 20260505073039 | 11 | 251 | 16.1 | 20.9 | 0.00 | 0.00 | 0.00 | 91 | 1010.5 |
| 20260505071536 | 11 | 233 | 14.5 | 22.5 | 0.00 | 0.00 | 0.00 | 90 | 1010.5 |
| 20260505070034 | 11 | 205 | 16.1 | 22.5 | 0.00 | 0.00 | 0.00 | 89 | 1010.3 |
| 20260505064534 | 12 | 200 | 16.1 | 20.9 | 0.00 | 0.00 | 0.00 | 88 | 1010.2 |
| 20260505063035 | 12 | 202 | 12.9 | 19.3 | 0.00 | 0.00 | 0.00 | 87 | 1010.1 |
| 20260505061530 | 12 | 240 | 16.1 | 22.5 | 0.00 | 0.00 | 0.00 | 86 | 1009.9 |
| 20260505060021 | 13 | 222 | 14.5 | 24.1 | 0.00 | 0.00 | 0.00 | 84 | 1009.7 |
| 20260505054522 | 13 | 226 | 11.3 | 16.1 | 0.00 | 0.00 | 0.00 | 82 | 1009.7 |
| 20260505053013 | 14 | 234 | 12.9 | 20.9 | 0.00 | 0.00 | 0.00 | 80 | 1009.6 |
| 20260505051511 | 15 | 215 | 12.9 | 19.3 | 0.00 | 0.00 | 0.00 | 79 | 1009.6 |
| 20260505041502 | 17 | 212 | 12.9 | 20.9 | 0.00 | 0.00 | 0.00 | 70 | 1008.9 |
| 20260505040101 | 18 | 250 | 11.3 | 19.3 | 0.00 | 0.00 | 0.00 | 68 | 1008.7 |
| 20260505034559 | 19 | 230 | 12.9 | 19.3 | 0.00 | 0.00 | 0.00 | 64 | 1008.6 |
| 20260505033058 | 20 | 220 | 12.9 | 17.7 | 0.00 | 0.00 | 0.00 | 61 | 1008.5 |
| 20260505031606 | 21 | 228 | 8.0 | 14.5 | 0.00 | 0.00 | 0.00 | 60 | 1008.3 |
| 20260505030056 | 22 | 250 | 8.0 | 16.1 | 0.00 | 0.00 | 0.00 | 58 | 1008.1 |
| 20260505024609 | 22 | 236 | 9.7 | 14.5 | 0.00 | 0.00 | 0.00 | 56 | 1008.1 |
| 20260505023056 | 23 | 265 | 9.7 | 14.5 | 0.00 | 0.00 | 0.00 | 53 | 1008.1 |
| 20260505021608 | 23 | 271 | 9.7 | 16.1 | 0.00 | 0.00 | 0.00 | 51 | 1008.2 |
| 20260505020053 | 23 | 251 | 6.4 | 14.5 | 0.00 | 0.00 | 0.00 | 48 | 1008.1 |
| 20260505014553 | 24 | 271 | 6.4 | 16.1 | 0.00 | 0.00 | 0.00 | 47 | 1008.2 |
| 20260505013052 | 25 | 270 | 8.0 | 16.1 | 0.00 | 0.00 | 0.00 | 45 | 1008.2 |
| 20260505011556 | 25 | 276 | 6.4 | 17.7 | 0.00 | 0.00 | 0.00 | 43 | 1008.3 |
| 20260505010050 | 25 | 230 | 6.4 | 14.5 | 0.00 | 0.00 | 0.00 | 41 | 1008.3 |
| 20260505004551 | 25 | 227 | 6.4 | 14.5 | 0.00 | 0.00 | 0.00 | 40 | 1008.3 |
| 20260505003050 | 25 | 262 | 9.7 | 16.1 | 0.00 | 0.00 | 0.00 | 37 | 1008.4 |
| 20260505001549 | 26 | 282 | 4.8 | 17.7 | 0.00 | 0.00 | 0.00 | 36 | 1008.4 |
| 20260505000047 | 25 | 267 | 8.0 | 14.5 | 0.00 | 0.00 | 0.00 | 38 | 1008.4 |
| 20260504234546 | 25 | 245 | 9.7 | 17.7 | 0.00 | 0.00 | 0.00 | 37 | 1008.5 |
| 20260504233056 | 25 | 304 | 9.7 | 19.3 | 0.00 | 0.00 | 0.00 | 36 | 1008.5 |
| 20260504231544 | 25 | 252 | 9.7 | 17.7 | 0.00 | 0.00 | 0.00 | 38 | 1008.5 |
| 20260504230044 | 25 | 190 | 6.4 | 20.9 | 0.00 | 0.00 | 0.00 | 38 | 1008.5 |
| 20260504224543 | 24 | 224 | 8.0 | 16.1 | 0.00 | 0.00 | 0.00 | 41 | 1008.8 |
| 20260504223049 | 25 | 316 | 8.0 | 16.1 | 0.00 | 0.00 | 0.00 | 42 | 1008.9 |
| 20260504221546 | 25 | 269 | 6.4 | 17.7 | 0.00 | 0.00 | 0.00 | 38 | 1009.1 |
| 20260504220058 | 25 | 234 | 9.7 | 17.7 | 0.00 | 0.00 | 0.00 | 38 | 1009.3 |
| 20260504214542 | 24 | 245 | 9.7 | 20.9 | 0.00 | 0.00 | 0.00 | 40 | 1009.2 |
| 20260504213037 | 24 | 259 | 8.0 | 20.9 | 0.00 | 0.00 | 0.00 | 38 | 1009.2 |
| 20260504211535 | 23 | 291 | 8.0 | 19.3 | 0.00 | 0.00 | 0.00 | 38 | 1009.3 |
| 20260504210035 | 24 | 234 | 11.3 | 17.7 | 0.00 | 0.00 | 0.00 | 41 | 1009.4 |
| 20260504204548 | 23 | 157 | 6.4 | 16.1 | 0.00 | 0.00 | 0.00 | 41 | 1009.5 |
| 20260504203034 | 23 | 157 | 4.8 | 12.9 | 0.00 | 0.00 | 0.00 | 39 | 1009.5 |
| 20260504201532 | 23 | 269 | 11.3 | 17.7 | 0.00 | 0.00 | 0.00 | 42 | 1009.4 |
| 20260504200034 | 23 | 201 | 8.0 | 16.1 | 0.00 | 0.00 | 0.00 | 40 | 1009.4 |
| 20260504194536 | 23 | 271 | 6.4 | 14.5 | 0.00 | 0.00 | 0.00 | 42 | 1009.5 |
| 20260504193026 | 23 | 246 | 4.8 | 12.9 | 0.00 | 0.00 | 0.00 | 43 | 1009.6 |
| 20260504191525 | 23 | 327 | 9.7 | 14.5 | 0.00 | 0.00 | 0.00 | 43 | 1009.6 |
| 20260504190029 | 22 | 273 | 8.0 | 14.5 | 0.00 | 0.00 | 0.00 | 46 | 1009.7 |
| 20260504184532 | 22 | 282 | 9.7 | 14.5 | 0.00 | 0.00 | 0.00 | 46 | 1009.7 |
| 20260504183021 | 21 | 234 | 8.0 | 12.9 | 0.00 | 0.00 | 0.00 | 48 | 1009.8 |
| 20260504181517 | 21 | 257 | 6.4 | 14.5 | 0.00 | 0.00 | 0.00 | 50 | 1009.8 |
| 20260504180013 | 21 | 298 | 9.7 | 17.7 | 0.00 | 0.00 | 0.00 | 52 | 1009.9 |
| 20260504174512 | 21 | 282 | 6.4 | 14.5 | 0.00 | 0.00 | 0.00 | 50 | 1009.8 |
| 20260504173010 | 20 | 257 | 6.4 | 11.3 | 0.00 | 0.00 | 0.00 | 54 | 1009.7 |
| 20260504171506 | 20 | 263 | 6.4 | 11.3 | 0.00 | 0.00 | 0.00 | 53 | 1009.7 |